| time (UTC) | temp F | wind direction | speed MPH | gust MPH | rain 1hr in | rain 24hr in | rain mn in | humidity % | barometer mb |
| 20260505181350 | 59 | 261 | 0.0 | 0.0 | 0.00 | 0.00 | 0.00 | 73 | 1010.5 |
| 20260505180849 | 59 | 180 | 2.0 | 3.0 | 0.00 | 0.00 | 0.00 | 73 | 1010.5 |
| 20260505180348 | 59 | 261 | 1.0 | 2.0 | 0.00 | 0.00 | 0.00 | 74 | 1010.5 |
| 20260505175847 | 58 | 342 | 1.0 | 0.0 | 0.00 | 0.00 | 0.00 | 74 | 1010.8 |
| 20260505175345 | 58 | 27 | 1.0 | 1.0 | 0.00 | 0.00 | 0.00 | 75 | 1010.8 |
| 20260505174844 | 58 | 171 | 1.0 | 2.0 | 0.00 | 0.00 | 0.00 | 75 | 1010.5 |
| 20260505174343 | 58 | 108 | 1.0 | 2.0 | 0.00 | 0.00 | 0.00 | 74 | 1010.5 |
| 20260505173842 | 58 | 288 | 0.0 | 1.0 | 0.00 | 0.00 | 0.00 | 75 | 1010.8 |
| 20260505173340 | 58 | 333 | 1.0 | 1.0 | 0.00 | 0.00 | 0.00 | 76 | 1010.8 |
| 20260505172839 | 57 | 225 | 0.0 | 0.0 | 0.00 | 0.00 | 0.00 | 76 | 1010.5 |
| 20260505172338 | 57 | 99 | 0.0 | 2.0 | 0.00 | 0.00 | 0.00 | 77 | 1010.5 |
| 20260505171836 | 57 | 18 | 0.0 | 2.0 | 0.00 | 0.00 | 0.00 | 77 | 1010.2 |
| 20260505171335 | 57 | 279 | 1.0 | 2.0 | 0.00 | 0.00 | 0.00 | 77 | 1010.5 |
| 20260505170834 | 57 | 27 | 2.0 | 3.0 | 0.00 | 0.00 | 0.00 | 77 | 1010.5 |
| 20260505165832 | 57 | 144 | 0.0 | 0.0 | 0.00 | 0.00 | 0.00 | 77 | 1010.5 |
| 20260505165331 | 57 | 9 | 1.0 | 3.0 | 0.00 | 0.00 | 0.00 | 77 | 1010.2 |
| 20260505164829 | 57 | 351 | 0.0 | 0.0 | 0.00 | 0.00 | 0.00 | 76 | 1010.5 |
| 20260505164328 | 57 | 81 | 0.0 | 1.0 | 0.00 | 0.00 | 0.00 | 76 | 1010.2 |
| 20260505163827 | 57 | 342 | 1.0 | 2.0 | 0.00 | 0.00 | 0.00 | 77 | 1010.5 |
| 20260505163326 | 57 | 135 | 2.0 | 3.0 | 0.00 | 0.00 | 0.00 | 77 | 1010.2 |
| 20260505162824 | 57 | 63 | 0.0 | 2.0 | 0.00 | 0.00 | 0.00 | 77 | 1010.2 |
| 20260505162323 | 57 | 234 | 1.0 | 1.0 | 0.00 | 0.00 | 0.00 | 75 | 1010.2 |
| 20260505161822 | 57 | 351 | 0.0 | 1.0 | 0.00 | 0.00 | 0.00 | 78 | 1010.2 |
| 20260505161321 | 57 | 180 | 1.0 | 2.0 | 0.00 | 0.00 | 0.00 | 77 | 1010.2 |
| 20260505160819 | 57 | 27 | 2.0 | 2.0 | 0.00 | 0.00 | 0.00 | 76 | 1010.2 |
| 20260505160318 | 57 | 333 | 1.0 | 2.0 | 0.00 | 0.00 | 0.00 | 77 | 1010.2 |
| 20260505153311 | 56 | 225 | 1.0 | 2.0 | 0.00 | 0.00 | 0.00 | 77 | 1010.2 |
| 20260505152810 | 56 | 207 | 1.0 | 1.0 | 0.00 | 0.00 | 0.00 | 78 | 1010.2 |
| 20260505152309 | 56 | 225 | 0.0 | 2.0 | 0.00 | 0.00 | 0.00 | 78 | 1010.2 |
| 20260505151306 | 56 | 45 | 0.0 | 2.0 | 0.00 | 0.00 | 0.00 | 79 | 1010.2 |
| 20260505150805 | 56 | 324 | 0.0 | 1.0 | 0.00 | 0.00 | 0.00 | 80 | 1010.2 |
| 20260505150304 | 55 | 90 | 0.0 | 1.0 | 0.00 | 0.00 | 0.00 | 81 | 1010.2 |
| 20260505140249 | 55 | 279 | 0.0 | 0.0 | 0.00 | 0.00 | 0.00 | 81 | 1009.5 |
| 20260505130234 | 54 | 198 | 0.0 | 2.0 | 0.00 | 0.00 | 0.00 | 81 | 1009.1 |
| 20260505124731 | 54 | 279 | 0.0 | 0.0 | 0.00 | 0.00 | 0.00 | 81 | 1009.1 |
| 20260505124230 | 54 | 54 | 0.0 | 1.0 | 0.00 | 0.00 | 0.00 | 81 | 1008.8 |
| 20260505123728 | 54 | 126 | 0.0 | 1.0 | 0.00 | 0.00 | 0.00 | 81 | 1009.1 |
| 20260505123227 | 54 | 198 | 0.0 | 1.0 | 0.00 | 0.00 | 0.00 | 81 | 1008.8 |
| 20260505122726 | 54 | 162 | 0.0 | 0.0 | 0.00 | 0.00 | 0.00 | 81 | 1008.8 |
| 20260505122225 | 54 | 108 | 0.0 | 0.0 | 0.00 | 0.00 | 0.00 | 81 | 1008.8 |
| 20260505121724 | 54 | 225 | 0.0 | 0.0 | 0.00 | 0.00 | 0.00 | 81 | 1008.8 |
| 20260505121222 | 54 | 315 | 0.0 | 1.0 | 0.00 | 0.00 | 0.00 | 81 | 1008.8 |
| 20260505120721 | 54 | 153 | 0.0 | 1.0 | 0.00 | 0.00 | 0.00 | 81 | 1008.8 |
| 20260505120220 | 54 | 234 | 0.0 | 0.0 | 0.00 | 0.00 | 0.00 | 81 | 1009.1 |
| 20260505115719 | 54 | 153 | 1.0 | 2.0 | 0.00 | 0.00 | 0.00 | 81 | 1008.8 |
| 20260505115217 | 54 | 45 | 0.0 | 1.0 | 0.00 | 0.00 | 0.00 | 81 | 1009.1 |
| 20260505114716 | 54 | 225 | 0.0 | 0.0 | 0.00 | 0.00 | 0.00 | 81 | 1009.1 |
| 20260505114215 | 54 | 351 | 0.0 | 0.0 | 0.00 | 0.00 | 0.00 | 81 | 1009.1 |
| 20260505113714 | 54 | 234 | 0.0 | 0.0 | 0.00 | 0.00 | 0.00 | 81 | 1008.8 |
| 20260505113213 | 54 | 162 | 0.0 | 0.0 | 0.00 | 0.00 | 0.00 | 81 | 1008.8 |
| 20260505112711 | 54 | 72 | 0.0 | 1.0 | 0.00 | 0.00 | 0.00 | 81 | 1008.8 |
| 20260505112210 | 54 | 216 | 0.0 | 0.0 | 0.00 | 0.00 | 0.00 | 82 | 1008.8 |
| 20260505111709 | 54 | 198 | 0.0 | 0.0 | 0.00 | 0.00 | 0.00 | 82 | 1008.8 |
| 20260505111208 | 54 | 180 | 0.0 | 0.0 | 0.00 | 0.00 | 0.00 | 82 | 1008.8 |
| 20260505110706 | 54 | 171 | 0.0 | 1.0 | 0.00 | 0.00 | 0.00 | 82 | 1008.8 |
| 20260505110205 | 54 | 207 | 0.0 | 1.0 | 0.00 | 0.00 | 0.00 | 82 | 1008.5 |
| 20260505102155 | 54 | 342 | 0.0 | 0.0 | 0.00 | 0.00 | 0.00 | 82 | 1008.5 |
| 20260505101654 | 54 | 171 | 0.0 | 0.0 | 0.00 | 0.00 | 0.00 | 83 | 1008.1 |
| 20260505101153 | 53 | 36 | 0.0 | 0.0 | 0.00 | 0.00 | 0.00 | 84 | 1008.5 |
| 20260505100652 | 53 | 126 | 0.0 | 0.0 | 0.00 | 0.00 | 0.00 | 83 | 1008.5 |
| 20260505100150 | 53 | 153 | 0.0 | 0.0 | 0.00 | 0.00 | 0.00 | 84 | 1008.5 |
| 20260505095649 | 53 | 90 | 0.0 | 0.0 | 0.00 | 0.00 | 0.00 | 85 | 1008.5 |
| 20260505095148 | 52 | 0 | 0.0 | 0.0 | 0.00 | 0.00 | 0.00 | 85 | 1008.5 |
| 20260505094647 | 52 | 99 | 0.0 | 0.0 | 0.00 | 0.00 | 0.00 | 85 | 1008.5 |
| 20260505094145 | 52 | 153 | 0.0 | 0.0 | 0.00 | 0.00 | 0.00 | 85 | 1008.1 |
| 20260505093644 | 52 | 99 | 0.0 | 0.0 | 0.00 | 0.00 | 0.00 | 84 | 1008.5 |
| 20260505093143 | 53 | 135 | 0.0 | 0.0 | 0.00 | 0.00 | 0.00 | 84 | 1008.1 |
| 20260505092642 | 53 | 27 | 0.0 | 0.0 | 0.00 | 0.00 | 0.00 | 84 | 1008.1 |
| 20260505092141 | 53 | 27 | 0.0 | 0.0 | 0.00 | 0.00 | 0.00 | 83 | 1008.5 |
| 20260505091639 | 53 | 225 | 0.0 | 0.0 | 0.00 | 0.00 | 0.00 | 83 | 1008.5 |
| 20260505091138 | 53 | 135 | 0.0 | 0.0 | 0.00 | 0.00 | 0.00 | 82 | 1008.5 |
| 20260505090637 | 54 | 18 | 0.0 | 0.0 | 0.00 | 0.00 | 0.00 | 82 | 1008.1 |
| 20260505090136 | 54 | 108 | 0.0 | 1.0 | 0.00 | 0.00 | 0.00 | 81 | 1008.1 |
| 20260505085635 | 54 | 18 | 0.0 | 0.0 | 0.00 | 0.00 | 0.00 | 81 | 1007.8 |
| 20260505085133 | 54 | 45 | 0.0 | 0.0 | 0.00 | 0.00 | 0.00 | 81 | 1007.8 |
| 20260505084632 | 54 | 90 | 0.0 | 1.0 | 0.00 | 0.00 | 0.00 | 80 | 1007.8 |
| 20260505084131 | 55 | 18 | 0.0 | 1.0 | 0.00 | 0.00 | 0.00 | 80 | 1008.1 |
| 20260505083630 | 55 | 126 | 2.0 | 2.0 | 0.00 | 0.00 | 0.00 | 79 | 1007.8 |
| 20260505083129 | 55 | 135 | 1.0 | 3.0 | 0.00 | 0.00 | 0.00 | 79 | 1007.8 |
| 20260505082627 | 55 | 297 | 0.0 | 2.0 | 0.00 | 0.00 | 0.00 | 79 | 1008.1 |
| 20260505081625 | 56 | 126 | 1.0 | 2.0 | 0.00 | 0.00 | 0.00 | 78 | 1008.1 |
| 20260505081124 | 56 | 126 | 2.0 | 3.0 | 0.00 | 0.00 | 0.00 | 78 | 1007.8 |
| 20260505080622 | 56 | 135 | 1.0 | 3.0 | 0.00 | 0.00 | 0.00 | 78 | 1007.8 |
| 20260505080121 | 56 | 90 | 0.0 | 1.0 | 0.00 | 0.00 | 0.00 | 78 | 1007.8 |
| 20260505075620 | 56 | 234 | 0.0 | 0.0 | 0.00 | 0.00 | 0.00 | 77 | 1007.8 |
| 20260505075119 | 56 | 9 | 0.0 | 2.0 | 0.00 | 0.00 | 0.00 | 77 | 1007.5 |
| 20260505074617 | 56 | 117 | 0.0 | 2.0 | 0.00 | 0.00 | 0.00 | 77 | 1007.8 |
| 20260505074116 | 56 | 126 | 2.0 | 5.0 | 0.00 | 0.00 | 0.00 | 77 | 1007.5 |
| 20260505073615 | 56 | 135 | 1.0 | 1.0 | 0.00 | 0.00 | 0.00 | 77 | 1007.5 |
| 20260505073114 | 57 | 288 | 1.0 | 1.0 | 0.00 | 0.00 | 0.00 | 77 | 1007.5 |
| 20260505072613 | 57 | 54 | 0.0 | 0.0 | 0.00 | 0.00 | 0.00 | 77 | 1007.5 |
| 20260505072111 | 57 | 315 | 1.0 | 2.0 | 0.00 | 0.00 | 0.00 | 77 | 1007.1 |
| 20260505071610 | 57 | 27 | 0.0 | 1.0 | 0.00 | 0.00 | 0.00 | 77 | 1007.1 |
| 20260505071109 | 58 | 99 | 0.0 | 1.0 | 0.00 | 0.00 | 0.00 | 77 | 1007.1 |
| 20260505070608 | 58 | 90 | 0.0 | 0.0 | 0.00 | 0.00 | 0.00 | 76 | 1007.1 |
| 20260505070107 | 58 | 18 | 0.0 | 1.0 | 0.00 | 0.00 | 0.00 | 76 | 1007.1 |
| 20260505065605 | 58 | 27 | 0.0 | 0.0 | 0.00 | 0.00 | 0.00 | 76 | 1006.8 |
| 20260505065104 | 58 | 162 | 0.0 | 0.0 | 0.00 | 0.00 | 0.00 | 76 | 1007.1 |
| 20260505064603 | 58 | 36 | 0.0 | 0.0 | 0.00 | 0.00 | 0.00 | 77 | 1006.8 |
| 20260505064102 | 58 | 108 | 0.0 | 0.0 | 0.00 | 0.00 | 0.00 | 76 | 1006.8 |
| 20260505063600 | 58 | 207 | 0.0 | 1.0 | 0.00 | 0.00 | 0.00 | 75 | 1006.8 |
| 20260505063059 | 58 | 18 | 0.0 | 1.0 | 0.00 | 0.00 | 0.00 | 75 | 1006.4 |
| 20260505062558 | 59 | 279 | 0.0 | 2.0 | 0.00 | 0.00 | 0.00 | 75 | 1006.8 |
| 20260505062057 | 59 | 198 | 0.0 | 0.0 | 0.00 | 0.00 | 0.00 | 75 | 1006.8 |
| 20260505061555 | 59 | 36 | 0.0 | 1.0 | 0.00 | 0.00 | 0.00 | 74 | 1006.4 |
| 20260505061054 | 60 | 99 | 0.0 | 0.0 | 0.00 | 0.00 | 0.00 | 74 | 1006.8 |
| 20260505060553 | 60 | 117 | 0.0 | 0.0 | 0.00 | 0.00 | 0.00 | 74 | 1006.4 |
| 20260505060052 | 60 | 333 | 0.0 | 0.0 | 0.00 | 0.00 | 0.00 | 73 | 1006.8 |
| 20260505055550 | 61 | 306 | 0.0 | 0.0 | 0.00 | 0.00 | 0.00 | 73 | 1006.4 |
| 20260505055049 | 61 | 81 | 0.0 | 1.0 | 0.00 | 0.00 | 0.00 | 72 | 1006.8 |
| 20260505054047 | 62 | 180 | 0.0 | 1.0 | 0.00 | 0.00 | 0.00 | 70 | 1006.4 |
| 20260505053545 | 62 | 207 | 0.0 | 2.0 | 0.00 | 0.00 | 0.00 | 70 | 1006.1 |
| 20260505053044 | 63 | 126 | 1.0 | 2.0 | 0.00 | 0.00 | 0.00 | 69 | 1006.1 |
| 20260505052543 | 63 | 261 | 0.0 | 2.0 | 0.00 | 0.00 | 0.00 | 68 | 1006.1 |
| 20260505052042 | 64 | 198 | 0.0 | 0.0 | 0.00 | 0.00 | 0.00 | 67 | 1006.1 |
| 20260505051039 | 65 | 216 | 0.0 | 0.0 | 0.00 | 0.00 | 0.00 | 65 | 1006.1 |
| 20260505050538 | 65 | 99 | 1.0 | 1.0 | 0.00 | 0.00 | 0.00 | 65 | 1006.1 |
| 20260505041526 | 66 | 45 | 0.0 | 0.0 | 0.00 | 0.00 | 0.00 | 66 | 1005.4 |
| 20260505041025 | 66 | 333 | 1.0 | 1.0 | 0.00 | 0.00 | 0.00 | 65 | 1005.1 |
| 20260505040523 | 66 | 135 | 1.0 | 1.0 | 0.00 | 0.00 | 0.00 | 65 | 1005.1 |
| 20260505040022 | 67 | 81 | 2.0 | 3.0 | 0.00 | 0.00 | 0.00 | 64 | 1005.1 |
| 20260505035521 | 67 | 315 | 0.0 | 2.0 | 0.00 | 0.00 | 0.00 | 64 | 1005.1 |
| 20260505035020 | 67 | 54 | 1.0 | 0.0 | 0.00 | 0.00 | 0.00 | 65 | 1005.1 |
| 20260505034519 | 67 | 153 | 0.0 | 0.0 | 0.00 | 0.00 | 0.00 | 66 | 1004.7 |
| 20260505034017 | 67 | 0 | 1.0 | 1.0 | 0.00 | 0.00 | 0.00 | 66 | 1004.7 |
| 20260505033516 | 68 | 297 | 0.0 | 1.0 | 0.00 | 0.00 | 0.00 | 66 | 1004.7 |
| 20260505033015 | 68 | 261 | 0.0 | 1.0 | 0.00 | 0.00 | 0.00 | 66 | 1004.4 |
| 20260505032514 | 68 | 234 | 0.0 | 2.0 | 0.00 | 0.00 | 0.00 | 65 | 1004.4 |
| 20260505032013 | 69 | 153 | 0.0 | 2.0 | 0.00 | 0.00 | 0.00 | 65 | 1004.1 |
| 20260505031511 | 69 | 18 | 1.0 | 2.0 | 0.00 | 0.00 | 0.00 | 65 | 1004.4 |
| 20260505031010 | 69 | 18 | 0.0 | 0.0 | 0.00 | 0.00 | 0.00 | 66 | 1004.4 |
| 20260505030509 | 70 | 324 | 0.0 | 0.0 | 0.00 | 0.00 | 0.00 | 67 | 1004.1 |
| 20260505030008 | 70 | 279 | 1.0 | 1.0 | 0.00 | 0.00 | 0.00 | 65 | 1004.1 |
| 20260505025506 | 70 | 117 | 0.0 | 0.0 | 0.00 | 0.00 | 0.00 | 65 | 1004.1 |
| 20260505025005 | 70 | 216 | 0.0 | 0.0 | 0.00 | 0.00 | 0.00 | 64 | 1004.1 |
| 20260505024504 | 70 | 207 | 0.0 | 1.0 | 0.00 | 0.00 | 0.00 | 64 | 1004.1 |
| 20260505024003 | 71 | 189 | 1.0 | 4.0 | 0.00 | 0.00 | 0.00 | 63 | 1004.1 |
| 20260505023501 | 71 | 351 | 3.0 | 2.0 | 0.00 | 0.00 | 0.00 | 62 | 1004.1 |
| 20260505023000 | 71 | 144 | 3.0 | 3.0 | 0.00 | 0.00 | 0.00 | 62 | 1004.1 |
| 20260505022459 | 71 | 144 | 1.0 | 2.0 | 0.00 | 0.00 | 0.00 | 62 | 1004.1 |
| 20260505021958 | 71 | 270 | 2.0 | 2.0 | 0.00 | 0.00 | 0.00 | 61 | 1004.1 |
| 20260505021456 | 71 | 90 | 2.0 | 1.0 | 0.00 | 0.00 | 0.00 | 62 | 1004.1 |
| 20260505020955 | 72 | 0 | 2.0 | 0.0 | 0.00 | 0.00 | 0.00 | 61 | 1004.1 |
| 20260505020454 | 72 | 90 | 0.0 | 2.0 | 0.00 | 0.00 | 0.00 | 61 | 1004.1 |
| 20260505015953 | 72 | 279 | 1.0 | 2.0 | 0.00 | 0.00 | 0.00 | 61 | 1004.1 |
| 20260505015451 | 72 | 252 | 2.0 | 3.0 | 0.00 | 0.00 | 0.00 | 61 | 1004.1 |
| 20260505014950 | 72 | 351 | 3.0 | 1.0 | 0.00 | 0.00 | 0.00 | 61 | 1004.1 |
| 20260505014449 | 72 | 189 | 4.0 | 7.0 | 0.00 | 0.00 | 0.00 | 60 | 1004.1 |
| 20260505013948 | 72 | 207 | 2.0 | 6.0 | 0.00 | 0.00 | 0.00 | 60 | 1004.1 |
| 20260505013446 | 72 | 162 | 2.0 | 4.0 | 0.00 | 0.00 | 0.00 | 59 | 1004.1 |
| 20260505012945 | 73 | 126 | 1.0 | 1.0 | 0.00 | 0.00 | 0.00 | 60 | 1004.4 |
| 20260505012444 | 72 | 288 | 2.0 | 4.0 | 0.00 | 0.00 | 0.00 | 60 | 1004.1 |
| 20260505011943 | 72 | 63 | 1.0 | 4.0 | 0.00 | 0.00 | 0.00 | 60 | 1004.1 |
| 20260505011441 | 72 | 207 | 3.0 | 9.0 | 0.00 | 0.00 | 0.00 | 59 | 1004.4 |
| 20260505010940 | 72 | 45 | 2.0 | 4.0 | 0.00 | 0.00 | 0.00 | 59 | 1004.1 |
| 20260505010439 | 72 | 9 | 3.0 | 4.0 | 0.00 | 0.00 | 0.00 | 59 | 1004.4 |
| 20260505005938 | 72 | 216 | 3.0 | 6.0 | 0.00 | 0.00 | 0.00 | 59 | 1004.4 |
| 20260505005437 | 72 | 243 | 2.0 | 4.0 | 0.00 | 0.00 | 0.00 | 59 | 1004.4 |
| 20260505004935 | 73 | 153 | 2.0 | 4.0 | 0.00 | 0.00 | 0.00 | 57 | 1004.4 |
| 20260505004434 | 73 | 27 | 2.0 | 4.0 | 0.00 | 0.00 | 0.00 | 58 | 1004.4 |
| 20260505003933 | 73 | 315 | 1.0 | 1.0 | 0.00 | 0.00 | 0.00 | 60 | 1004.4 |
| 20260505003432 | 73 | 99 | 3.0 | 5.0 | 0.00 | 0.00 | 0.00 | 58 | 1004.4 |
| 20260505002931 | 73 | 342 | 3.0 | 2.0 | 0.00 | 0.00 | 0.00 | 57 | 1004.4 |
| 20260505002429 | 74 | 207 | 2.0 | 3.0 | 0.00 | 0.00 | 0.00 | 57 | 1004.4 |
| 20260505001928 | 74 | 153 | 2.0 | 2.0 | 0.00 | 0.00 | 0.00 | 56 | 1004.7 |
| 20260505001427 | 74 | 81 | 2.0 | 3.0 | 0.00 | 0.00 | 0.00 | 57 | 1004.4 |
| 20260505000926 | 74 | 45 | 2.0 | 2.0 | 0.00 | 0.00 | 0.00 | 55 | 1004.4 |
| 20260505000424 | 74 | 135 | 3.0 | 4.0 | 0.00 | 0.00 | 0.00 | 56 | 1004.4 |
| 20260504235923 | 74 | 306 | 4.0 | 4.0 | 0.00 | 0.00 | 0.00 | 55 | 1004.7 |
| 20260504235422 | 75 | 252 | 2.0 | 2.0 | 0.00 | 0.00 | 0.00 | 54 | 1004.4 |
| 20260504234921 | 75 | 171 | 2.0 | 6.0 | 0.00 | 0.00 | 0.00 | 53 | 1004.7 |
| 20260504234419 | 74 | 243 | 4.0 | 4.0 | 0.00 | 0.00 | 0.00 | 56 | 1004.7 |
| 20260504233918 | 73 | 27 | 3.0 | 4.0 | 0.00 | 0.00 | 0.00 | 55 | 1004.7 |
| 20260504233417 | 74 | 63 | 2.0 | 2.0 | 0.00 | 0.00 | 0.00 | 55 | 1004.7 |
| 20260504232916 | 75 | 270 | 2.0 | 4.0 | 0.00 | 0.00 | 0.00 | 54 | 1004.7 |
| 20260504232415 | 75 | 144 | 3.0 | 4.0 | 0.00 | 0.00 | 0.00 | 53 | 1005.1 |
| 20260504231914 | 74 | 234 | 1.0 | 2.0 | 0.00 | 0.00 | 0.00 | 55 | 1004.7 |
| 20260504231412 | 74 | 126 | 4.0 | 12.0 | 0.00 | 0.00 | 0.00 | 53 | 1005.1 |
| 20260504230911 | 74 | 243 | 1.0 | 2.0 | 0.00 | 0.00 | 0.00 | 54 | 1005.1 |
| 20260504230410 | 74 | 27 | 3.0 | 5.0 | 0.00 | 0.00 | 0.00 | 54 | 1005.1 |
| 20260504225909 | 74 | 333 | 2.0 | 4.0 | 0.00 | 0.00 | 0.00 | 55 | 1005.1 |
| 20260504225408 | 74 | 288 | 2.0 | 4.0 | 0.00 | 0.00 | 0.00 | 54 | 1005.1 |
| 20260504224907 | 74 | 126 | 3.0 | 4.0 | 0.00 | 0.00 | 0.00 | 55 | 1005.1 |
| 20260504224405 | 74 | 126 | 2.0 | 3.0 | 0.00 | 0.00 | 0.00 | 53 | 1005.4 |
| 20260504223904 | 75 | 63 | 1.0 | 3.0 | 0.00 | 0.00 | 0.00 | 53 | 1005.4 |
| 20260504223403 | 74 | 279 | 1.0 | 2.0 | 0.00 | 0.00 | 0.00 | 53 | 1005.1 |
| 20260504222902 | 73 | 288 | 3.0 | 5.0 | 0.00 | 0.00 | 0.00 | 54 | 1005.4 |
| 20260504222400 | 74 | 243 | 3.0 | 7.0 | 0.00 | 0.00 | 0.00 | 53 | 1005.4 |
| 20260504221859 | 73 | 189 | 3.0 | 2.0 | 0.00 | 0.00 | 0.00 | 55 | 1005.4 |
| 20260504221358 | 72 | 135 | 4.0 | 6.0 | 0.00 | 0.00 | 0.00 | 54 | 1005.8 |
| 20260504220857 | 73 | 324 | 2.0 | 2.0 | 0.00 | 0.00 | 0.00 | 55 | 1005.4 |
| 20260504220355 | 73 | 63 | 2.0 | 5.0 | 0.00 | 0.00 | 0.00 | 54 | 1005.8 |
| 20260504215854 | 72 | 342 | 3.0 | 7.0 | 0.00 | 0.00 | 0.00 | 54 | 1005.8 |
| 20260504215353 | 73 | 198 | 2.0 | 2.0 | 0.00 | 0.00 | 0.00 | 56 | 1005.8 |
| 20260504214852 | 71 | 279 | 3.0 | 4.0 | 0.00 | 0.00 | 0.00 | 57 | 1005.8 |
| 20260504214350 | 73 | 225 | 2.0 | 6.0 | 0.00 | 0.00 | 0.00 | 54 | 1005.8 |
| 20260504213849 | 72 | 144 | 3.0 | 10.0 | 0.00 | 0.00 | 0.00 | 55 | 1005.8 |
| 20260504213348 | 71 | 90 | 3.0 | 2.0 | 0.00 | 0.00 | 0.00 | 58 | 1006.1 |
| 20260504212847 | 71 | 234 | 2.0 | 4.0 | 0.00 | 0.00 | 0.00 | 57 | 1006.1 |
| 20260504212345 | 72 | 351 | 2.0 | 4.0 | 0.00 | 0.00 | 0.00 | 56 | 1006.1 |
| 20260504211844 | 70 | 216 | 2.0 | 1.0 | 0.00 | 0.00 | 0.00 | 60 | 1006.4 |
| 20260504211343 | 70 | 45 | 2.0 | 2.0 | 0.00 | 0.00 | 0.00 | 59 | 1006.1 |
| 20260504210842 | 68 | 216 | 4.0 | 6.0 | 0.00 | 0.00 | 0.00 | 60 | 1006.4 |
| 20260504205839 | 68 | 351 | 2.0 | 5.0 | 0.00 | 0.00 | 0.00 | 60 | 1006.8 |
| 20260504205338 | 67 | 126 | 3.0 | 5.0 | 0.00 | 0.00 | 0.00 | 62 | 1006.8 |
| 20260504204837 | 66 | 351 | 5.0 | 2.0 | 0.00 | 0.00 | 0.00 | 63 | 1006.8 |
| 20260504204336 | 66 | 27 | 5.0 | 2.0 | 0.00 | 0.00 | 0.00 | 64 | 1006.8 |
| 20260504203834 | 66 | 162 | 4.0 | 4.0 | 0.00 | 0.00 | 0.00 | 64 | 1006.8 |
| 20260504203333 | 68 | 279 | 2.0 | 4.0 | 0.00 | 0.00 | 0.00 | 60 | 1007.1 |
| 20260504202832 | 68 | 135 | 2.0 | 6.0 | 0.00 | 0.00 | 0.00 | 62 | 1006.8 |
| 20260504202331 | 67 | 342 | 4.0 | 3.0 | 0.00 | 0.00 | 0.00 | 62 | 1007.1 |
| 20260504201829 | 67 | 72 | 2.0 | 5.0 | 0.00 | 0.00 | 0.00 | 61 | 1007.1 |
| 20260504201328 | 66 | 9 | 2.0 | 2.0 | 0.00 | 0.00 | 0.00 | 63 | 1007.1 |
| 20260504200827 | 65 | 351 | 1.0 | 2.0 | 0.00 | 0.00 | 0.00 | 66 | 1007.1 |
| 20260504200326 | 64 | 81 | 5.0 | 3.0 | 0.00 | 0.00 | 0.00 | 65 | 1007.5 |
| 20260504195824 | 66 | 27 | 2.0 | 4.0 | 0.00 | 0.00 | 0.00 | 63 | 1007.1 |
| 20260504195323 | 64 | 36 | 2.0 | 2.0 | 0.00 | 0.00 | 0.00 | 66 | 1007.5 |
| 20260504194822 | 63 | 171 | 6.0 | 5.0 | 0.00 | 0.00 | 0.00 | 67 | 1007.5 |
| 20260504194321 | 63 | 315 | 3.0 | 6.0 | 0.00 | 0.00 | 0.00 | 67 | 1007.5 |
| 20260504193820 | 64 | 351 | 2.0 | 3.0 | 0.00 | 0.00 | 0.00 | 64 | 1007.5 |
| 20260504193319 | 64 | 333 | 3.0 | 6.0 | 0.00 | 0.00 | 0.00 | 66 | 1007.5 |
| 20260504192817 | 64 | 342 | 2.0 | 2.0 | 0.00 | 0.00 | 0.00 | 66 | 1007.5 |
| 20260504192316 | 63 | 288 | 2.0 | 7.0 | 0.00 | 0.00 | 0.00 | 68 | 1007.5 |
| 20260504191815 | 63 | 243 | 3.0 | 4.0 | 0.00 | 0.00 | 0.00 | 68 | 1007.5 |
| 20260504191314 | 63 | 27 | 2.0 | 6.0 | 0.00 | 0.00 | 0.00 | 67 | 1007.5 |
| 20260504190812 | 61 | 243 | 4.0 | 4.0 | 0.00 | 0.00 | 0.00 | 69 | 1007.5 |
| 20260504190311 | 62 | 261 | 6.0 | 5.0 | 0.00 | 0.00 | 0.00 | 69 | 1007.5 |
| 20260504185810 | 62 | 27 | 2.0 | 2.0 | 0.00 | 0.00 | 0.00 | 67 | 1007.5 |
| 20260504185309 | 61 | 189 | 2.0 | 5.0 | 0.00 | 0.00 | 0.00 | 69 | 1007.8 |
| 20260504184807 | 62 | 261 | 3.0 | 3.0 | 0.00 | 0.00 | 0.00 | 70 | 1007.8 |
| 20260504184306 | 62 | 243 | 2.0 | 4.0 | 0.00 | 0.00 | 0.00 | 69 | 1007.8 |
| 20260504183805 | 61 | 198 | 4.0 | 4.0 | 0.00 | 0.00 | 0.00 | 71 | 1007.8 |
| 20260504183304 | 62 | 27 | 3.0 | 6.0 | 0.00 | 0.00 | 0.00 | 69 | 1007.8 |
| 20260504182802 | 62 | 297 | 2.0 | 3.0 | 0.00 | 0.00 | 0.00 | 70 | 1007.5 |
| 20260504182301 | 61 | 0 | 2.0 | 4.0 | 0.00 | 0.00 | 0.00 | 70 | 1007.5 |
| 20260504181800 | 60 | 243 | 4.0 | 4.0 | 0.00 | 0.00 | 0.00 | 72 | 1007.5 |